Wenatchee, WA
on Wednesday, December 12, 2012

Wednesday
Previous Day Next Day
Daily Summary
 ActualAverageRecord
Temperature
Mean Temperature °F 26°F  
Max Temperature 34°F 31°F 50°F (1995)
Min Temperature 30°F 20°F 6°F (1972)
Degree Days
Heating Degree Days 33 39  
Month to date heating degree days 356 457  
Since 1 July heating degree days 1971 2339  
Cooling Degree Days 0 0  
Month to date cooling degree days 0 0  
Year to date cooling degree days 294 249  
Moisture
Dew Point 31°F   
Average Humidity 85    
Maximum Humidity 92    
Minimum Humidity 75    
Precipitation
Precipitation 0.19 in 0.07 in 0.67 in (1971)
Month to date precipitation 1.19 1.00  
Year to date precipitation 21.73 15.55  
Snow
Snow 2.80 in 0.50 in in ()
Month to date snowfall 3.6 5.8  
Since 1 July snowfall 10.8 13.7  
Snow Depth 1.00 in   
Wind
Wind Speed 1 mph   
Max Wind Speed 6 mph   
Max Gust Speed mph   
Visibility 9 miles   
Events Rain   

Key: T is trace of precipitation, MM is missing value
Source: NWS Daily Summary
Time(PST)TemperatureDew PointHumidity Pressure Visibility Wind DirectionWind SpeedGust SpeedPrecipitationEvents Conditions
12:55 AM 33.1°F 30.9°F 92% 29.61 in 0.8 miles Calm Calm - N/A   Mist
1:10 AM 33.8°F 30.2°F 87% 29.58 in 5.0 miles Calm Calm - N/A   Overcast
1:55 AM 33.1°F 30.0°F 89% 29.62 in 7.0 miles WNW 3.5 mph - N/A   Overcast
2:24 AM 33.8°F 30.2°F 87% 29.60 in 7.0 miles West 4.6 mph - N/A   Overcast
2:55 AM 33.1°F 30.0°F 89% 29.63 in 7.0 miles WNW 4.6 mph - N/A   Overcast
3:40 AM 33.8°F 30.2°F 87% 29.61 in 7.0 miles Calm Calm - N/A   Overcast
3:55 AM 33.1°F 30.9°F 92% 29.64 in 8.0 miles Calm Calm - N/A   Overcast
4:55 AM 33.1°F 30.9°F 92% 29.65 in 8.0 miles WNW 3.5 mph - N/A   Overcast
5:47 AM 33.8°F 30.2°F 87% 29.64 in 8.0 miles West 3.5 mph - N/A   Overcast
5:55 AM 33.1°F 30.9°F 92% 29.67 in 8.0 miles West 3.5 mph - N/A   Overcast
6:17 AM 33.8°F 30.2°F 87% 29.65 in 10.0 miles Calm Calm - N/A   Overcast
6:55 AM 34.0°F 30.0°F 85% 29.70 in 10.0 miles Calm Calm - N/A   Overcast
7:55 AM 34.0°F 30.0°F 85% 29.72 in 10.0 miles Calm Calm - N/A   Overcast
8:55 AM 35.1°F 30.0°F 82% 29.75 in 10.0 miles Calm Calm - N/A   Overcast
9:48 AM 35.6°F 30.2°F 81% 29.75 in 10.0 miles Calm Calm - N/A   Overcast
9:55 AM 35.1°F 30.9°F 85% 29.78 in 10.0 miles Calm Calm - N/A   Overcast
10:55 AM 35.1°F 30.9°F 85% 29.80 in 10.0 miles Calm Calm - N/A   Overcast
11:55 AM 36.0°F 30.0°F 79% 29.81 in 10.0 miles NW 3.5 mph - N/A   Overcast
12:55 PM 37.0°F 30.9°F 79% 29.82 in 10.0 miles Calm Calm - N/A   Overcast
1:55 PM 37.9°F 32.0°F 79% 29.83 in 10.0 miles Calm Calm - 0.00 in Rain Light Rain
2:09 PM 37.4°F 30.2°F 75% 29.81 in 10.0 miles Calm Calm - 0.00 in Rain Light Rain
2:55 PM 37.9°F 32.0°F 79% 29.86 in 10.0 miles Calm Calm - 0.00 in   Overcast
3:55 PM 37.0°F 30.9°F 79% 29.88 in 10.0 miles Calm Calm - N/A   Overcast
4:55 PM 35.1°F 30.0°F 82% 29.90 in 10.0 miles Calm Calm - N/A   Scattered Clouds
5:55 PM 33.1°F 28.9°F 85% 29.91 in 10.0 miles Calm Calm - N/A   Overcast
6:55 PM 34.0°F 30.0°F 85% 29.92 in 10.0 miles Calm Calm - N/A   Overcast
7:55 PM 34.0°F 30.0°F 85% 29.94 in 10.0 miles Calm Calm - N/A   Overcast
8:51 PM 33.8°F 30.2°F 87% 29.94 in 10.0 miles WNW 4.6 mph - N/A   Overcast
8:55 PM 34.0°F 30.9°F 89% 29.97 in 10.0 miles NW 5.8 mph - N/A   Overcast
9:42 PM 35.6°F 32.0°F 87% 29.96 in 10.0 miles WNW 4.6 mph - N/A   Overcast
9:55 PM 35.1°F 32.0°F 89% 29.99 in 9.0 miles Calm Calm - N/A   Overcast
10:55 PM 35.1°F 30.9°F 85% 30.00 in 8.0 miles Calm Calm - N/A   Overcast
11:55 PM 33.1°F 30.0°F 89% 30.01 in 10.0 miles Calm Calm - N/A   Overcast
Moon Phase
Dec. 12 Dec. 13 Dec. 20 Dec. 28 Jan. 04
Sunrise:07:39 AM (PST) Moon Rise:06:48 AM (PST)12/12
Sunset:04:10 PM (PST) Moon Set:03:53 PM (PST)12/12

Copyright © 2014 The Weather Underground, Inc.